[ hide orbit diagram ]
For accurate long-term ephemerides, please instead use our Horizons system.This orbit viewer was implemented using two-body methods, and hence should not be used for determining accurate long-term trajectories (over several years or decades) or planetary encounter circumstances.
Orbital Elements at Epoch 2459200.5 (2020-Dec-17.0) TDB
Reference: JPL 12 (heliocentric ecliptic J2000)
Element | Value | Uncertainty (1-sigma) | Units |
e | .2043024782913396 | 6.8895e-07 | |
a | 3.193624431103897 | 2.1838e-07 | au |
q | 2.541159045097602 | 2.3696e-06 | au |
i | 27.00389731880475 | 1.6552e-05 | deg |
node | 26.79719661161655 | 2.5953e-05 | deg |
peri | 310.9113939230224 | 0.00019313 | deg |
M | 267.3061829691412 | 8.632e-05 | deg |
tp | 2459737.250497122690 (2022-Jun-06.75049712) | 0.00045167 | TDB |
period | 2084.606990559468 5.71 | 0.00021382 5.854e-07 | d yr |
n | .1726944223205272 | 1.7713e-08 | deg/d |
Q | 3.846089817110193 | 2.6299e-07 | au |
|
| | Orbit Determination Parameters
Additional Information
|
[ hide covariance matrix ]
Orbital Elements at Epoch 2456805.5 (2014-May-28.0) TDB
Reference: JPL 12 (heliocentric ecliptic J2000)
Element | Value | Uncertainty (1-sigma) | Units |
e | .2027918374288817 | 6.9326e-07 | |
q | 2.547086831237462 | 2.3852e-06 | au |
tp | 2457652.753788511149 (2016-Sep-21.25378851) | 0.00065122 | TDB |
node | 26.82768669628536 | 2.596e-05 | deg |
peri | 311.1764001954705 | 0.00019382 | deg |
i | 26.99789218796201 | 1.6549e-05 | deg |
|
| | Orbit Determination Parameters
Additional Information
|
Orbit Covariance (6×6)
|
|
e |
q |
tp |
node |
peri |
i |
e |
4.806113887815124E-13 |
-1.653312840247772E-12 |
4.343267596278765E-10 |
-3.778830833487124E-12 |
1.302648168595074E-10 |
-6.853427470864765E-12 |
q |
-1.653312840247772E-12 |
5.689071621936625E-12 |
-1.494033631220887E-9 |
1.299373531425475E-11 |
-4.482918203930417E-10 |
2.35872622141891E-11 |
tp |
4.343267596278765E-10 |
-1.494033631220887E-9 |
4.24081167805103E-7 |
-3.417469964079931E-9 |
1.249442028820902E-7 |
-6.142952754525569E-9 |
node |
-3.778830833487124E-12 |
1.299373531425475E-11 |
-3.417469964079931E-9 |
6.739198111966086E-10 |
-1.598898100009728E-9 |
-3.387422702473544E-11 |
peri |
1.302648168595074E-10 |
-4.482918203930417E-10 |
1.249442028820902E-7 |
-1.598898100009728E-9 |
3.756677958891463E-8 |
-1.765899436439022E-9 |
i |
-6.853427470864765E-12 |
2.35872622141891E-11 |
-6.142952754525569E-9 |
-3.387422702473544E-11 |
-1.765899436439022E-9 |
2.738554774865999E-10 |
|
Physical Parameter Table
Parameter |
Symbol |
Value |
Units |
Sigma |
Reference |
Notes |
absolute magnitude |
H |
16.6 |
|
n/a |
MPO392231 |
|
diameter |
diameter |
3.576 |
km |
0.305 |
urn:nasa:pds:neowise_diameters_albedos::2.0[mainbelt] (http://adsabs.harvard.edu/abs/2011ApJ...741...68M) |
|
geometric albedo |
albedo |
0.038 |
|
0.007 |
urn:nasa:pds:neowise_diameters_albedos::2.0[mainbelt] (http://adsabs.harvard.edu/abs/2011ApJ...741...68M) |
|
|
469838 (2005 TR8) Discovered 2005-Oct-01 by Spacewatch at Kitt Peak |
Reference: | Last Updated: 2016-08-22 |
|
[ hide close-approach data ]
Close-Approach Data ...sorted by Date/Time (TDB)
|
Date/Time (TDB) |
Time Uncertainty (days_HH:MM) |
Body |
Nominal Distance (au) |
Minimum Distance (au) |
Maximum Distance (au) |
V-relative (km/s) |
V-infinity (km/s) |
JD (TDB) |
Time Uncertainty (minutes) |
Semi-major axis (km) |
Semi-minor axis (km) |
range-LOV angle (deg) |
N-sigma |
BP |
Orbit Ref. |
Reference |
Modified |
1922-May-26 17:55 |
00:13 |
Jupiter |
1.90172963568612 |
1.90172296108841 |
1.90173631033289 |
6.68029146483289 |
6.61328226566859 |
2423201.246726999 |
12.9259775880748 |
1107.33094955936 |
289.184511702849 |
-81.9881750979789 |
471966.855237465 |
T |
12 |
CATAB v2.0e-lin.ifort 2018-Oct-04 12:31:21 |
2018-Dec-18 03:38 |
1933-Nov-02 22:36 |
00:11 |
Jupiter |
1.8984971906071 |
1.89848534417417 |
1.89850903707131 |
6.54395191289347 |
6.47541490691005 |
2427379.441841536 |
11.4176154208193 |
774.301716522459 |
364.944887210001 |
-48.0339180974829 |
394322.237675356 |
T |
12 |
CATAB v2.0e-lin.ifort 2018-Oct-04 12:31:21 |
2018-Dec-18 03:38 |
2100-Sep-24 19:29 |
00:12 |
Jupiter |
1.97803338185833 |
1.97801664296671 |
1.97805012216836 |
6.72915212440677 |
6.66521262780557 |
2488336.311855054 |
12.3168029789127 |
2798.93150439152 |
91.8124013589474 |
72.9626451202543 |
1025662.55957683 |
T |
12 |
CATAB v2.0e-lin.ifort 2018-Oct-04 12:31:21 |
2018-Dec-18 03:38 |
2112-Feb-23 12:29 |
00:12 |
Jupiter |
1.86053008605909 |
1.86051796339836 |
1.86054220945496 |
6.65297958116432 |
6.58419470393356 |
2492505.019962125 |
11.9820572743232 |
1983.87308100646 |
113.55370432488 |
72.8686517975 |
943662.537373721 |
T |
12 |
CATAB v2.0e-lin.ifort 2018-Oct-04 12:31:21 |
2018-Dec-18 03:38 |
2123-Aug-05 00:42 |
00:13 |
Jupiter |
1.8703024306359 |
1.87029666239508 |
1.87030819927274 |
6.55211595899212 |
6.48262783078381 |
2496685.529289877 |
12.6219673028079 |
1706.66080342924 |
165.960736070401 |
82.4223671961825 |
886926.627786989 |
T |
12 |
CATAB v2.0e-lin.ifort 2018-Oct-04 12:31:21 |
2018-Dec-18 03:38 |
2135-Jan-11 13:05 |
00:15 |
Jupiter |
1.9933043254984 |
1.99329765544256 |
1.99331099578879 |
6.40261141288849 |
6.33589497780546 |
2500863.045000109 |
15.0019175551078 |
1573.55224169448 |
235.655294727702 |
-80.9679193034993 |
898184.701102688 |
T |
12 |
CATAB v2.0e-lin.ifort 2018-Oct-04 12:31:21 |
2018-Dec-18 03:38 |
|
|